Wind_Speed
7 7 8 8 8 7 8 7 7 7 7 7 7 8 7 7 7 7 8 8 9 10 10 11 12 12 12 13 13 13 13 13 14 14 15 15 16 16
8 8 8 8 7 7 7 7 7 7 7 7 7 7 7 7 8 8 8 9 10 11 11 12 13 13 13 13 14 14 14 14 15 16 16 16 17 18
9 8 8 8 8 8 8 8 7 8 8 8 8 8 8 9 9 10 10 11 12 12 12 13 14 14 14 15 15 15 16 16 16 16 17 18 18 19
8 8 8 8 8 8 8 8 8 8 8 9 9 9 9 10 10 11 12 12 13 13 13 14 14 15 15 16 16 16 16 17 17 18 18 19 20 20
8 8 8 8 9 9 9 9 9 9 9 10 10 10 10 10 11 12 13 13 14 14 14 15 15 16 16 17 17 17 17 18 18 19 20 21 21 22
9 9 9 9 9 9 9 10 10 10 10 10 11 11 11 12 12 13 14 15 16 16 16 16 16 17 17 17 18 18 18 19 20 21 22 23 23 23
11 11 10 10 10 10 10 10 11 11 12 12 12 13 13 14 15 15 16 17 17 18 18 18 18 18 18 18 19 19 20 21 22 23 24 25 25 25
12 12 12 12 11 11 12 12 12 12 13 13 14 15 16 16 17 17 17 18 18 19 19 19 19 19 19 20 21 22 22 23 24 25 26 26 27 27
13 13 13 12 13 13 13 14 14 14 14 15 16 16 17 18 18 18 19 19 20 20 20 20 20 20 21 22 23 24 24 25 26 27 28 28 29 29
15 15 15 14 14 14 14 14 14 15 15 16 17 18 19 19 19 19 20 20 21 21 21 22 22 22 23 24 24 25 26 27 28 28 29 29 29 30
17 17 16 16 16 16 16 16 16 16 17 17 18 19 19 20 21 21 21 22 22 23 23 24 24 24 25 25 26 27 28 29 30 30 30 30 30 31
18 18 18 18 18 18 18 18 18 18 19 19 20 20 21 21 22 22 22 23 23 24 24 24 25 25 26 27 28 29 29 30 30 31 31 30 30 30
19 19 20 20 20 20 20 20 20 20 20 21 22 22 22 22 23 23 24 24 24 24 24 25 26 26 27 28 29 30 30 31 31 31 31 31 31 31
19 20 21 21 22 22 21 21 21 21 22 22 22 22 22 23 23 24 24 24 24 24 25 26 26 27 28 29 29 30 30 31 32 32 32 32 32 32
21 21 21 22 22 22 22 22 22 22 23 23 23 23 23 24 24 24 25 25 25 25 26 26 27 28 29 29 30 31 32 32 32 33 33 33 33 33
23 22 22 22 23 23 22 23 23 23 23 23 24 24 24 25 26 26 26 26 27 27 28 28 29 30 31 31 31 32 32 32 33 34 34 33 33 34
24 24 24 23 23 24 24 24 24 24 23 23 24 25 25 26 26 27 27 28 28 28 29 30 31 32 32 33 33 33 34 34 35 35 35 35 35 36
24 23 24 24 25 25 25 25 24 25 25 26 26 26 26 26 27 28 28 29 29 29 30 31 32 32 33 34 34 35 35 36 36 36 36 36 37 37
24 24 25 25 25 25 25 25 25 26 26 26 26 26 28 28 29 29 29 30 30 30 31 32 33 33 34 34 34 36 36 36 36 36 36 36 37 37
25 25 25 26 26 25 25 25 25 25 26 26 27 28 29 29 29 29 30 31 31 32 32 33 34 35 35 35 35 36 37 37 37 37 37 37 36 37
25 25 25 25 25 24 23 24 25 26 26 27 28 29 30 30 31 32 32 32 33 33 33 33 34 35 36 36 36 36 36 37 38 38 37 37 37 38
25 25 25 24 23 24 24 25 26 27 27 28 28 29 30 31 31 32 33 33 34 34 35 35 35 36 37 38 38 37 37 37 38 38 38 39 39 39
24 24 23 23 24 25 26 26 27 27 28 29 29 30 30 31 31 32 33 33 34 35 35 36 36 37 38 38 38 37 37 38 38 38 39 40 41 41
Wind_Direction
284 286 289 292 297 301 303 300 304 306 307 304 306 306 306 307 306 298 299 300 302 302 304 306 307 308 307 305 306 304 302 300 297 296 296 296 296 296
284 285 289 289 293 299 298 297 303 306 307 310 310 310 309 308 308 302 302 302 302 302 304 306 306 306 305 306 306 304 303 301 299 298 299 300 300 299
286 286 287 288 291 293 295 296 299 303 303 303 304 307 305 303 304 303 303 303 303 302 303 304 305 305 302 302 303 303 302 301 300 300 301 301 302 302
287 286 285 285 287 290 293 295 296 298 301 303 301 303 305 304 304 303 303 302 301 302 302 302 304 305 304 302 303 302 302 302 301 302 302 302 302 301
285 285 284 285 284 286 289 291 290 292 296 299 300 302 304 304 304 303 303 301 300 301 300 301 303 306 306 305 305 303 303 303 302 301 302 302 302 300
278 279 281 283 285 287 288 290 289 290 293 295 299 301 303 303 304 303 303 302 301 301 300 299 300 302 303 305 306 306 305 303 303 303 303 302 301 299
273 275 278 281 281 284 287 289 289 290 291 291 294 297 299 302 302 301 301 301 299 300 299 298 298 299 301 301 301 302 304 304 303 302 302 302 301 300
270 273 276 279 279 281 283 287 290 292 292 291 292 293 295 298 300 302 301 301 300 299 299 297 298 297 298 299 299 300 301 303 303 302 302 302 301 301
270 274 277 278 279 279 283 285 287 290 293 293 292 293 294 297 300 302 302 302 302 300 299 298 298 300 300 300 301 301 302 302 303 302 302 301 300 300
268 272 276 277 277 278 283 287 290 292 295 295 294 294 294 297 299 300 300 301 301 299 298 298 298 299 299 301 300 301 301 303 303 302 302 302 301 300
268 271 273 274 274 275 278 282 287 291 296 298 298 297 297 298 299 300 301 300 301 301 300 298 298 299 299 300 301 301 301 303 303 303 303 302 302 301
269 270 272 272 273 275 278 280 283 286 290 294 299 299 297 298 298 298 299 300 300 301 300 300 300 300 301 301 302 303 303 303 304 304 304 304 303 302
268 270 272 273 274 275 277 278 281 284 287 290 293 296 296 297 297 298 299 300 300 300 300 300 300 301 302 302 303 303 303 304 304 304 304 304 304 302
270 271 272 274 276 275 276 278 280 284 287 290 291 293 294 295 296 297 298 300 301 300 301 301 301 302 302 303 303 303 303 304 303 303 303 303 303 302
270 272 274 275 276 276 276 277 279 283 287 289 291 293 293 294 296 297 297 298 301 301 301 301 301 302 303 303 303 303 303 303 303 302 303 303 303 302
270 272 274 277 276 276 276 278 280 283 286 289 291 293 294 294 295 295 295 297 298 299 299 300 301 302 302 303 303 302 302 302 302 303 302 302 302 302
270 271 273 276 277 276 276 276 279 282 284 287 291 293 294 294 294 295 295 295 296 297 298 299 300 301 302 302 301 301 301 301 302 301 302 302 301 301
272 273 275 276 277 277 276 276 277 280 283 287 290 292 294 294 294 295 296 296 296 297 299 300 301 301 301 302 302 301 301 301 302 301 301 302 302 302
275 276 277 278 278 277 277 276 277 281 284 287 290 292 294 295 296 295 295 297 298 298 299 300 301 301 302 301 301 302 303 302 302 301 301 302 303 303
277 276 277 278 277 277 278 277 279 283 287 289 290 292 294 295 295 296 296 296 297 298 300 301 302 302 302 302 302 302 303 303 302 302 302 302 303 304
278 278 278 278 278 278 279 280 282 284 286 289 291 293 295 295 295 294 296 297 297 298 301 302 302 303 303 303 303 303 303 303 303 303 303 303 303 303
279 278 278 276 276 278 279 281 283 285 286 289 292 294 295 296 296 295 295 297 298 299 300 301 301 301 302 303 303 303 302 303 304 304 304 304 304 304
279 279 278 278 279 279 280 282 284 286 288 290 292 294 295 296 296 297 297 297 298 299 301 300 300 301 302 302 303 303 303 303 304 304 304 304 305 305
Height
5840 5840 5840 5840 5839 5839 5838 5838 5838 5837 5836 5835 5835 5834 5833 5833 5832 5832 5832 5831 5830 5830 5829 5828 5827 5825 5824 5823 5822 5821 5820 5818 5818 5817 5815 5814 5813 5812
5838 5838 5838 5838 5837 5837 5837 5836 5836 5836 5835 5834 5833 5832 5832 5831 5831 5830 5830 5829 5828 5827 5826 5825 5824 5822 5821 5820 5819 5817 5816 5815 5814 5813 5812 5810 5809 5808
5837 5836 5836 5836 5836 5835 5835 5834 5834 5834 5833 5832 5832 5831 5830 5829 5829 5828 5827 5826 5825 5824 5823 5822 5820 5819 5818 5816 5815 5813 5812 5811 5810 5809 5807 5806 5804 5803
5834 5834 5834 5834 5834 5833 5833 5832 5832 5832 5831 5830 5830 5829 5828 5827 5826 5825 5825 5824 5822 5821 5820 5818 5817 5816 5814 5812 5811 5809 5808 5807 5805 5804 5803 5801 5799 5798
5832 5832 5832 5832 5832 5831 5831 5830 5830 5829 5829 5828 5828 5827 5826 5825 5824 5822 5821 5820 5819 5818 5816 5815 5813 5812 5810 5808 5807 5805 5804 5802 5801 5799 5797 5796 5794 5792
5830 5830 5830 5829 5829 5829 5829 5828 5828 5827 5827 5826 5825 5824 5823 5822 5821 5819 5818 5817 5815 5814 5813 5811 5810 5808 5806 5804 5802 5801 5799 5797 5796 5794 5792 5790 5788 5786
5827 5827 5827 5827 5826 5826 5826 5826 5825 5824 5824 5823 5822 5821 5820 5819 5818 5816 5815 5813 5811 5810 5808 5807 5805 5804 5802 5800 5798 5796 5794 5792 5790 5789 5786 5784 5782 5779
5824 5824 5824 5824 5823 5823 5823 5822 5822 5821 5821 5820 5819 5818 5817 5815 5814 5812 5810 5809 5807 5806 5803 5802 5800 5798 5797 5795 5793 5791 5789 5787 5784 5782 5780 5777 5775 5772
5820 5820 5820 5820 5820 5819 5819 5819 5818 5817 5817 5816 5815 5813 5812 5811 5809 5808 5806 5804 5802 5800 5798 5796 5795 5793 5791 5789 5787 5785 5782 5780 5777 5775 5772 5769 5767 5764
5816 5816 5816 5816 5816 5815 5815 5815 5814 5813 5812 5811 5810 5809 5807 5806 5805 5803 5801 5799 5797 5795 5793 5791 5789 5787 5785 5782 5780 5778 5775 5773 5770 5767 5764 5761 5758 5755
5811 5811 5811 5811 5811 5811 5811 5810 5810 5809 5808 5806 5805 5804 5802 5801 5799 5797 5796 5794 5791 5789 5787 5785 5783 5781 5779 5776 5773 5771 5768 5765 5762 5759 5756 5752 5749 5746
5806 5806 5806 5806 5806 5805 5805 5805 5805 5804 5803 5802 5800 5799 5797 5795 5793 5792 5790 5788 5785 5783 5780 5778 5776 5774 5772 5769 5766 5763 5760 5757 5754 5750 5747 5744 5740 5737
5800 5800 5800 5800 5800 5800 5799 5799 5799 5798 5797 5796 5795 5793 5791 5790 5788 5785 5783 5781 5779 5777 5774 5772 5769 5767 5764 5762 5759 5755 5752 5749 5745 5742 5738 5735 5732 5729
5793 5794 5794 5793 5793 5793 5793 5793 5792 5792 5791 5790 5789 5787 5785 5783 5781 5779 5777 5775 5772 5770 5767 5765 5762 5760 5757 5754 5751 5748 5744 5740 5737 5733 5730 5726 5723 5719
5787 5787 5787 5787 5787 5786 5786 5786 5785 5785 5784 5783 5782 5781 5779 5777 5775 5773 5771 5768 5766 5763 5760 5757 5755 5752 5749 5746 5743 5739 5736 5732 5728 5725 5721 5717 5714 5710
5780 5780 5780 5780 5780 5780 5779 5779 5778 5778 5777 5776 5775 5774 5772 5770 5768 5766 5764 5761 5759 5756 5753 5750 5747 5744 5741 5738 5734 5731 5727 5723 5720 5716 5712 5708 5704 5700
5773 5773 5773 5773 5773 5773 5772 5772 5771 5771 5770 5769 5768 5766 5765 5763 5761 5758 5756 5754 5751 5748 5745 5742 5739 5735 5732 5728 5725 5721 5717 5714 5710 5706 5702 5698 5694 5690
5766 5766 5766 5766 5766 5765 5765 5764 5764 5763 5762 5761 5760 5759 5757 5755 5753 5750 5748 5745 5743 5740 5737 5734 5730 5726 5723 5719 5715 5711 5708 5704 5700 5696 5692 5688 5684 5680
5758 5758 5758 5758 5758 5757 5757 5757 5756 5755 5754 5753 5752 5751 5749 5747 5744 5742 5739 5737 5734 5731 5728 5724 5721 5717 5714 5710 5706 5701 5697 5694 5689 5685 5681 5677 5673 5669
5751 5750 5750 5750 5750 5750 5749 5749 5748 5748 5746 5745 5744 5742 5740 5738 5735 5733 5730 5728 5725 5722 5719 5715 5711 5707 5703 5700 5696 5692 5687 5683 5679 5675 5670 5666 5662 5658
5743 5742 5742 5742 5742 5742 5741 5741 5740 5740 5738 5737 5735 5733 5731 5729 5726 5724 5721 5718 5715 5712 5709 5706 5701 5697 5693 5689 5686 5681 5677 5672 5667 5663 5659 5655 5651 5647
5735 5734 5734 5734 5734 5734 5733 5733 5732 5731 5730 5728 5726 5724 5722 5719 5717 5714 5711 5709 5706 5703 5699 5696 5691 5687 5683 5679 5674 5670 5666 5661 5656 5652 5647 5644 5639 5635
5727 5727 5727 5726 5726 5726 5725 5724 5723 5722 5721 5719 5717 5715 5713 5710 5707 5704 5702 5699 5696 5693 5689 5685 5681 5677 5672 5668 5664 5659 5655 5651 5646 5642 5638 5633 5628 5623